Tracking 28091 objects as of 29-Sep-2023
HD Live streaming from Space Station
objects crossing your sky now

FLOCK 4X 12

Track FLOCK 4X 12 now!
10-day predictions


NORAD ID: 51015
Int'l Code: 2022-002AH
Perigee: 473.9 km
Apogee: 486.0 km
Inclination: 97.4 °
Period: 94.1 minutes
Semi major axis: 6850 km
RCS: Unknown
Launch date: January 13, 2022
Source: United States (US)
Launch site: AIR FORCE EASTERN TEST RANGE (AFETR)
Your satellite tracking list
Your tracking list is empty




NASA's NSSDC Master Catalog

Two Line Element Set (TLE):
1 51015U 22002AH  23272.42146502  .00017507  00000-0  58570-3 0  9996
2 51015  97.4304 341.0285 0008877 218.3568 141.7042 15.31001987 94778
Source of the keplerian elements: AFSPC